Location: *
(60.1759°S, 155.0663°W)
Time: 19:25:28
(UTC+00:00)

Cosmos 1862 - Pass Details

Date: 17 September 2019
Orbit: 538 x 557 km, 82.5° (Epoch: 15 October)

Event Time Altitude Azimuth Distance (km) Brightness Sun altitude
Exits shadow 13:32:31 45° 9° (N) 764 3.8 -20.9°
Maximum altitude 13:33:39 72° 80° (E) 589 3.5 -20.8°
Drops below altitude 10° 13:37:43 10° 163° (SSE) 1,852 6.7 -20.4°
Sets 13:39:54 0° 164° (SSE) 2,751 7.7 -20.2°
